This demonstration page uses our WeatherBlox Daily Observations layout. Learn more.

Left ArrowRight Arrow

Hourly Observations for January 3, 2019

Temp ( °F °C ) Dew Point ( °F °C ) Humidity (%) Winds ( mph kmh ) Pressure ( in mb ) Visibility ( mi km ) Precip ( " mm )
12:51 am 00:51 Clear 23 -5 21 -6.1 92 92 ENE 3 6 30.29 1026 10 16 N/A
1:51 am 01:51 Clear 21 -6.1 20 -6.7 96 96 S 5 7 30.29 1026 10 16 N/A
2:27 am 02:27 Partly Cloudy 20 -6.7 18 -7.8 92 92 N N/A 30.45 1031 10 16 N/A
2:36 am 02:36 Mostly Cloudy 19 -7 18 -8 93 93 N N/A 30.48 1032 10 16 N/A
2:51 am 02:51 Cloudy 19 -7.2 18 -7.8 96 96 N N/A 30.31 1027 10 16 N/A
3:08 am 03:08 Cloudy with Mist and Fog 21 -6.1 20 -6.7 96 96 N N/A 30.45 1031 1 2 N/A
3:16 am 03:16 Mostly Cloudy with Freezing Fog 22 -5.6 21 -6.1 96 96 N N/A 30.45 1031 0 0 N/A
3:51 am 03:51 Mostly Cloudy with Freezing Fog 23 -5 23 -5 100 100 ENE 3 6 30.30 1026 0 0 N/A
4:33 am 04:33 Cloudy with Mist and Fog 20 -6.7 20 -6.7 100 100 SSE 8 13 30.42 1030 3 4 N/A
4:41 am 04:41 Cloudy 20 -6.7 20 -6.7 100 100 SE 6 9 30.42 1030 10 16 N/A
4:51 am 04:51 Cloudy 20 -6.7 20 -6.7 100 100 ESE 6 9 30.29 1026 7 11 N/A
5:51 am 05:51 Cloudy 20 -6.7 20 -6.7 100 100 E 6 9 30.31 1026 10 16 N/A
6:09 am 06:09 Cloudy 21 -6.1 20 -6.7 96 96 E 6 9 30.42 1030 8 13 N/A
6:37 am 06:37 Cloudy with Mist and Fog 21 -6.1 21 -6.1 100 100 SSE 8 13 30.45 1031 2 3 N/A
6:40 am 06:40 Cloudy with Mist and Fog 21 -6 21 -6 100 100 SSE 9 15 30.45 1031 1 1 N/A
6:51 am 06:51 Cloudy with Freezing Fog 22 -5.6 22 -5.6 100 100 SSE 8 13 30.33 1027 0 0 N/A
7:14 am 07:14 Cloudy with Mist and Fog 21 -6 21 -6 100 100 SSE 5 7 30.45 1031 2 3 N/A
7:27 am 07:27 Cloudy with Mist and Fog 22 -5.6 21 -6.1 96 96 ESE 3 6 30.45 1031 1 2 N/A
7:49 am 07:49 Cloudy with Freezing Fog 21 -6 21 -6 100 100 SSE 5 7 30.48 1032 0 0 N/A
7:51 am 07:51 Mostly Cloudy with Freezing Fog 22 -5.6 21 -6.1 96 96 SSE 3 6 30.35 1028 0 0 N/A
8:51 am 08:51 Mostly Cloudy with Freezing Fog 22 -5.6 22 -5.6 100 100 SE 5 7 30.36 1028 5 8 N/A
9:51 am 09:51 Mostly Cloudy with Freezing Fog 23 -5 23 -5 100 100 ESE 5 7 30.38 1029 0 0 N/A
10:51 am 10:51 Mostly Cloudy with Mist and Fog 25 -3.9 25 -3.9 100 100 ESE 6 9 30.35 1028 1 1 N/A
10:59 am 10:59 Cloudy with Mist and Fog 25 -3.9 25 -3.9 100 100 ESE 5 7 30.42 1030 1 2 N/A
11:14 am 11:14 Cloudy with Mist and Fog 27 -3 27 -3 100 100 ESE 5 7 30.42 1030 3 5 N/A
11:51 am 11:51 Cloudy with Mist and Fog 26 -3.3 26 -3.3 100 100 ESE 3 6 30.31 1027 3 5 N/A
12:51 pm 12:51 Mostly Cloudy 29 -1.7 27 -2.8 92 92 SE 3 6 30.26 1025 10 16 N/A
1:00 pm 13:00 Mostly Cloudy 28 -2 28 -2 100 100 SE 5 7 30.36 1028 10 16 N/A
1:07 pm 13:07 Partly Cloudy 30 -1 28 -2 93 93 VRB 3 6 30.36 1028 10 16 N/A
1:51 pm 13:51 Sunny 32 undefined 28 -2.2 85 85 N N/A 30.23 1024 10 16 N/A
2:51 pm 14:51 Sunny 37 2.8 28 -2.2 70 70 N N/A 30.21 1023 10 16 N/A
3:51 pm 15:51 Sunny 38 3.3 27 -2.8 65 65 N N/A 30.20 1023 10 16 N/A
4:51 pm 16:51 Sunny 38 3.3 28 -2.2 68 68 S 3 6 30.21 1023 10 16 N/A
5:51 pm 17:51 Clear 34 1.1 28 -2.2 79 79 SSE 6 9 30.23 1024 10 16 N/A
6:51 pm 18:51 Clear 31 -0.6 28 -2.2 89 89 E 6 9 30.24 1024 10 16 N/A
7:51 pm 19:51 Clear 30 -1.1 29 -1.7 96 96 E 5 7 30.25 1024 10 16 N/A
8:51 pm 20:51 Clear 29 -1.7 27 -2.8 92 92 N N/A 30.25 1024 10 16 N/A
9:51 pm 21:51 Clear 29 -1.7 28 -2.2 96 96 N N/A 30.26 1025 10 16 N/A
10:51 pm 22:51 Clear 29 -1.7 27 -2.8 92 92 S 7 11 30.25 1025 10 16 N/A
11:51 pm 23:51 Clear 28 -2.2 26 -3.3 92 92 SE 6 9 30.26 1025 10 16 N/A

Powered by AerisWeather